Regional Weather Roundup
Issued by NWS

Home | Current Version | Previous Version | Text Only | Print | Product List | Glossary Off
Versions: 1 2 3 4 5 6 7 8 9 10 11 12 13 14 15 16 17 18 19 20 21 22 23 24 25 26 27 28 29 30 31 32 33 34 35 36 37 38 39 40 41 42 43 44 45 46 47 48 49 50

000
ASUS43 KFSD 240302
RWRSD

WEATHER ROUNDUP FOR SOUTH DAKOTA
NATIONAL WEATHER SERVICE SIOUX FALLS SD
900 PM CST FRI FEB 23 2018

NOTE: "FAIR" INDICATES FEW OR NO CLOUDS BELOW 12,000 FEET WITH NO
SIGNIFICANT WEATHER AND/OR OBSTRUCTIONS TO VISIBILITY.


SDZ001>005-009-010-012>017-240400-
NORTHWEST AND NORTH CENTRAL SOUTH DAKOTA

CITY           SKY/WX    TMP DP  RH WIND       PRES   REMARKS
BUFFALO          N/A      4  -3  73 SE6       29.95F WCI  -7
FAITH            N/A     -1  -4  87 SE15      30.09F WCI -21
MOBRIDGE       PTCLDY     1  -5  75 SE8       30.18F WCI -13
$$

SDZ012>016-024>037-041>051-057-063-072>074-240400-
SOUTHWEST AND SOUTH CENTRAL SOUTH DAKOTA

CITY           SKY/WX    TMP DP  RH WIND       PRES   REMARKS
RAPID CTY ARPT CLEAR     11   1  64 SE9       30.04F WCI  -2
PIERRE         CLEAR     -5  -6  96 E5        30.21F WCI -16
CUSTER         PTCLDY    13   0  56 W3        29.93F
ELLSWORTH AFB  CLEAR     15   4  63 S15       30.02F WCI  -1
PHILIP         CLEAR      0  -2  91 MISG      30.16F
PINE RIDGE     CLEAR      4   1  88 CALM      30.06F
SPEARFISH        N/A     10   3  72 S7        29.96F WCI   0
WINNER         FAIR       8   5  87 SE5       30.20F WCI   0
$$

SDZ004>011-016>023-039-040-240400-
NORTHEAST SOUTH DAKOTA

CITY           SKY/WX    TMP DP  RH WIND       PRES   REMARKS
ABERDEEN       CLEAR     -9  -9 100 S3        30.28F FOG
WATERTOWN      FOG        0   0 100 S3        30.25F VSB 1/4
BROOKINGS      CLOUDY    14  12  92 CALM      30.28F FOG
SISSETON         N/A     10   6  84 SW7       30.28F WCI  -1
$$

SDZ017-020-022-023-036>040-048>070-240400-
SOUTHEAST SOUTH DAKOTA

CITY           SKY/WX    TMP DP  RH WIND       PRES   REMARKS
SIOUX FALLS    CLOUDY    17  15  92 N9        30.27F FOG     WCI   6
HURON          CLEAR      5   3  91 CALM      30.29F FOG
CHAMBERLAIN    CLEAR      3   1  91 CALM      30.23F
MITCHELL       PTCLDY     7   5  91 CALM      30.29F FOG
YANKTON        FOG        9   7  92 N3        30.29S VSB 1/2
$$

ABBREVIATIONS USED IN REMARKS
   TC - TEMPERATURE IN CELSIUS
  WCI - WIND CHILL INDEX
   HX - HEAT INDEX
  VSB - VISIBILITY





USA.gov is the U.S. government's official web portal to all federal, state and local government web resources and services.